Location: West Cummington
(42.4920°N, 72.9680°W)
Time: 12:45:04
(UTC-04:00)

Cosmos 1703 Rocket - Visible Passes

Search period start: 21 July 2017 00:00
Search period end: 31 July 2017 00:00
Orbit: 607 x 633 km, 82.5° (Epoch: 21 July)

Date Brightness Start Highest point End Pass type
(mag) Time Alt. Az. Time Alt. Az. Time Alt. Az.
21 Jul 3.5 21:37:13 10° N 21:41:39 72° E 21:45:08 16° SSE visible
22 Jul 4.0 21:54:50 10° NNW 21:59:13 59° W 22:02:56 14° S visible
23 Jul 5.2 22:12:46 10° NNW 22:16:41 31° W 22:20:33 10° SSW visible
24 Jul 4.1 20:52:19 10° N 20:56:31 41° ENE 21:00:39 10° SSE visible
24 Jul 6.1 22:31:08 10° NW 22:34:02 17° W 22:36:54 10° SW visible
25 Jul 3.5 21:09:44 10° N 21:14:10 78° E 21:18:32 10° SSE visible
26 Jul 4.2 21:27:24 10° NNW 21:31:43 55° W 21:35:59 10° S visible
27 Jul 5.4 21:45:22 10° NNW 21:49:10 29° W 21:52:55 10° SSW visible
28 Jul 6.2 22:03:50 10° NW 22:06:31 16° W 22:09:11 10° WSW visible
29 Jul 3.6 20:42:16 10° N 20:46:41 84° E 20:51:03 10° S visible
30 Jul 4.5 20:59:58 10° NNW 21:04:13 50° W 21:08:25 10° SSW visible
